TimeHST,TemperatureF,Dew PointF,Humidity,Sea Level PressureIn,VisibilityMPH,Wind Direction,Wind SpeedMPH,Gust SpeedMPH,PrecipitationIn,Events,Conditions,WindDirDegrees,DateUTC
12:56 AM,66.9,63.0,87,29.97,10.0,Calm,Calm,-,N/A,,Partly Cloudy,0,2013-01-28 10:56:00
1:56 AM,66.0,62.1,87,29.96,10.0,Calm,Calm,-,N/A,,Clear,0,2013-01-28 11:56:00
2:56 AM,66.0,66.0,100,29.94,10.0,Calm,Calm,-,N/A,,Clear,0,2013-01-28 12:56:00
3:56 AM,64.9,61.0,87,29.94,10.0,Calm,Calm,-,N/A,,Clear,0,2013-01-28 13:56:00
4:56 AM,64.9,61.0,87,29.94,10.0,ENE,3.5,-,N/A,,Clear,70,2013-01-28 14:56:00
5:56 AM,64.0,60.1,87,29.94,10.0,Calm,Calm,-,N/A,,Clear,0,2013-01-28 15:56:00
6:56 AM,64.0,59.0,84,29.96,10.0,East,3.5,-,N/A,,Clear,90,2013-01-28 16:56:00
7:56 AM,64.0,61.0,90,29.97,10.0,Calm,Calm,-,N/A,,Clear,0,2013-01-28 17:56:00
8:56 AM,71.1,64.9,81,29.98,10.0,Calm,Calm,-,N/A,,Mostly Cloudy,0,2013-01-28 18:56:00
9:56 AM,73.9,64.0,71,29.97,10.0,SW,5.8,-,N/A,,Partly Cloudy,230,2013-01-28 19:56:00
10:47 AM,73.4,66.2,78,29.97,10.0,WSW,5.8,-,N/A,,Partly Cloudy,240,2013-01-28 20:47:00
10:56 AM,73.9,68.0,82,29.97,10.0,WSW,4.6,-,N/A,,Clear,250,2013-01-28 20:56:00
11:56 AM,75.0,70.0,84,29.96,10.0,SW,6.9,-,N/A,,Clear,230,2013-01-28 21:56:00
12:56 PM,75.9,64.9,69,29.94,10.0,West,9.2,-,N/A,,Clear,270,2013-01-28 22:56:00
1:33 PM,75.2,62.6,65,29.91,10.0,West,5.8,-,N/A,,Partly Cloudy,280,2013-01-28 23:33:00
1:56 PM,75.9,63.0,64,29.91,10.0,West,5.8,-,N/A,,Clear,280,2013-01-28 23:56:00
2:23 PM,75.2,62.6,65,29.90,10.0,WNW,6.9,-,N/A,,Partly Cloudy,300,2013-01-29 00:23:00
2:56 PM,77.0,63.0,62,29.90,10.0,WNW,4.6,-,N/A,,Partly Cloudy,300,2013-01-29 00:56:00
3:56 PM,75.0,62.1,64,29.90,10.0,West,4.6,-,N/A,,Overcast,280,2013-01-29 01:56:00
4:56 PM,75.0,63.0,66,29.91,10.0,Calm,Calm,-,N/A,,Overcast,0,2013-01-29 02:56:00
5:45 PM,75.2,64.4,69,29.90,10.0,SSW,4.6,-,N/A,,Overcast,210,2013-01-29 03:45:00
5:56 PM,75.0,64.9,71,29.91,10.0,Variable,3.5,-,N/A,,Overcast,0,2013-01-29 03:56:00
6:56 PM,73.0,64.9,76,29.94,10.0,ESE,3.5,-,N/A,,Scattered Clouds,120,2013-01-29 04:56:00
7:56 PM,73.0,68.0,84,29.95,10.0,North,3.5,-,N/A,,Scattered Clouds,10,2013-01-29 05:56:00
8:56 PM,70.0,66.9,90,29.96,10.0,Calm,Calm,-,N/A,,Scattered Clouds,0,2013-01-29 06:56:00
9:56 PM,70.0,64.9,84,29.96,10.0,East,3.5,-,N/A,,Mostly Cloudy,80,2013-01-29 07:56:00
10:56 PM,69.1,62.1,78,29.96,10.0,ENE,3.5,-,N/A,,Partly Cloudy,60,2013-01-29 08:56:00
11:56 PM,68.0,63.0,84,29.96,10.0,Calm,Calm,-,N/A,,Clear,0,2013-01-29 09:56:00